| time (UTC) | temp F | wind direction | speed MPH | gust MPH | rain 1hr in | rain 24hr in | rain mn in | humidity % | barometer mb |
| 20260506082001 | 59 | 198 | 8.0 | 21.0 | 0.00 | 0.00 | 0.00 | 82 | 1010.4 |
| 20260506081503 | 59 | 209 | 9.0 | 24.0 | 0.00 | 0.00 | 0.00 | 82 | 1010.4 |
| 20260506081001 | 58 | 171 | 8.0 | 24.0 | 0.00 | 0.00 | 0.00 | 82 | 1010.3 |
| 20260506080509 | 59 | 159 | 8.0 | 24.0 | 0.00 | 0.00 | 0.00 | 81 | 1010.3 |
| 20260506073458 | 59 | 187 | 8.0 | 24.0 | 0.00 | 0.00 | 0.00 | 80 | 1010.3 |
| 20260506073012 | 59 | 168 | 10.0 | 29.0 | 0.00 | 0.00 | 0.00 | 79 | 1010.3 |
| 20260506072002 | 59 | 194 | 8.0 | 29.0 | 0.00 | 0.00 | 0.00 | 79 | 1010.3 |
| 20260506070517 | 59 | 164 | 8.0 | 25.0 | 0.00 | 0.00 | 0.00 | 79 | 1010.3 |
| 20260506062504 | 59 | 223 | 8.0 | 22.0 | 0.00 | 0.00 | 0.00 | 78 | 1010.0 |
| 20260506062006 | 59 | 147 | 9.0 | 23.0 | 0.00 | 0.00 | 0.00 | 78 | 1010.1 |
| 20260506061511 | 59 | 182 | 9.0 | 23.0 | 0.00 | 0.00 | 0.00 | 78 | 1010.2 |
| 20260506061002 | 60 | 107 | 8.0 | 26.0 | 0.00 | 0.00 | 0.00 | 78 | 1010.2 |
| 20260506060459 | 60 | 176 | 8.0 | 26.0 | 0.00 | 0.00 | 0.00 | 77 | 1010.2 |
| 20260506051001 | 60 | 249 | 8.0 | 22.0 | 0.00 | 0.00 | 0.00 | 76 | 1010.6 |
| 20260506045000 | 59 | 227 | 8.0 | 18.0 | 0.00 | 0.00 | 0.00 | 76 | 1010.9 |
| 20260506044501 | 59 | 204 | 7.0 | 18.0 | 0.00 | 0.00 | 0.00 | 76 | 1010.8 |
| 20260506044024 | 59 | 190 | 8.0 | 16.0 | 0.00 | 0.00 | 0.00 | 76 | 1010.7 |
| 20260506043509 | 59 | 167 | 8.0 | 18.0 | 0.00 | 0.00 | 0.00 | 76 | 1010.8 |
| 20260506043025 | 59 | 153 | 8.0 | 22.0 | 0.00 | 0.00 | 0.00 | 76 | 1010.8 |
| 20260506042001 | 59 | 279 | 9.0 | 19.0 | 0.00 | 0.00 | 0.00 | 76 | 1010.7 |
| 20260506041459 | 59 | 296 | 8.0 | 21.0 | 0.00 | 0.00 | 0.00 | 76 | 1010.8 |
| 20260506041002 | 59 | 215 | 7.0 | 21.0 | 0.00 | 0.00 | 0.00 | 76 | 1010.7 |
| 20260506040006 | 59 | 192 | 9.0 | 27.0 | 0.00 | 0.00 | 0.00 | 76 | 1010.7 |
| 20260506035528 | 59 | 169 | 8.0 | 20.0 | 0.00 | 0.00 | 0.00 | 76 | 1010.7 |
| 20260506035011 | 59 | 154 | 8.0 | 21.0 | 0.00 | 0.00 | 0.00 | 76 | 1010.8 |
| 20260506033505 | 58 | 221 | 9.0 | 20.0 | 0.00 | 0.00 | 0.00 | 75 | 1010.7 |
| 20260506033005 | 59 | 202 | 9.0 | 20.0 | 0.00 | 0.00 | 0.00 | 74 | 1010.6 |
| 20260506032506 | 59 | 150 | 8.0 | 26.0 | 0.00 | 0.00 | 0.00 | 74 | 1010.7 |
| 20260506032028 | 59 | 150 | 8.0 | 26.0 | 0.00 | 0.00 | 0.00 | 74 | 1010.6 |
| 20260506031004 | 59 | 179 | 8.0 | 23.0 | 0.00 | 0.00 | 0.00 | 73 | 1010.4 |
| 20260506030518 | 59 | 236 | 8.0 | 23.0 | 0.00 | 0.00 | 0.00 | 73 | 1010.4 |
| 20260506030024 | 59 | 112 | 8.0 | 20.0 | 0.00 | 0.00 | 0.00 | 72 | 1010.4 |
| 20260506025512 | 59 | 188 | 8.0 | 23.0 | 0.00 | 0.00 | 0.00 | 71 | 1010.5 |
| 20260506024011 | 58 | 189 | 8.0 | 21.0 | 0.00 | 0.00 | 0.00 | 71 | 1010.3 |
| 20260506023503 | 58 | 169 | 10.0 | 21.0 | 0.00 | 0.00 | 0.00 | 70 | 1010.3 |
| 20260506023003 | 58 | 177 | 9.0 | 22.0 | 0.00 | 0.00 | 0.00 | 70 | 1010.1 |
| 20260506022523 | 58 | 119 | 8.0 | 22.0 | 0.00 | 0.00 | 0.00 | 70 | 1010.1 |
| 20260506022010 | 58 | 211 | 8.0 | 21.0 | 0.00 | 0.00 | 0.00 | 69 | 1010.1 |
| 20260506021503 | 58 | 161 | 8.0 | 21.0 | 0.00 | 0.00 | 0.00 | 69 | 1010.3 |
| 20260506021004 | 58 | 94 | 7.0 | 20.0 | 0.00 | 0.00 | 0.00 | 68 | 1010.3 |
| 20260506020530 | 58 | 175 | 8.0 | 21.0 | 0.00 | 0.00 | 0.00 | 68 | 1010.3 |
| 20260506014503 | 59 | 151 | 8.0 | 20.0 | 0.00 | 0.00 | 0.00 | 67 | 1010.4 |
| 20260506014001 | 59 | 183 | 9.0 | 20.0 | 0.00 | 0.00 | 0.00 | 67 | 1010.5 |
| 20260506013509 | 59 | 160 | 9.0 | 26.0 | 0.00 | 0.00 | 0.00 | 67 | 1010.3 |
| 20260506013005 | 59 | 183 | 9.0 | 26.0 | 0.00 | 0.00 | 0.00 | 67 | 1010.3 |
| 20260506012513 | 59 | 190 | 8.0 | 25.0 | 0.00 | 0.00 | 0.00 | 67 | 1010.1 |
| 20260506012023 | 59 | 169 | 8.0 | 21.0 | 0.00 | 0.00 | 0.00 | 67 | 1010.1 |
| 20260506011503 | 59 | 148 | 8.0 | 21.0 | 0.00 | 0.00 | 0.00 | 67 | 1010.1 |
| 20260506011010 | 59 | 175 | 9.0 | 24.0 | 0.00 | 0.00 | 0.00 | 66 | 1010.2 |
| 20260506010501 | 59 | 188 | 9.0 | 24.0 | 0.00 | 0.00 | 0.00 | 66 | 1010.0 |
| 20260506010012 | 59 | 143 | 8.0 | 18.0 | 0.00 | 0.00 | 0.00 | 66 | 1009.9 |
| 20260506005510 | 60 | 196 | 8.0 | 21.0 | 0.00 | 0.00 | 0.00 | 66 | 1010.0 |
| 20260506005004 | 60 | 175 | 7.0 | 21.0 | 0.00 | 0.00 | 0.00 | 65 | 1010.0 |
| 20260506004504 | 60 | 180 | 7.0 | 22.0 | 0.00 | 0.00 | 0.00 | 65 | 1009.9 |
| 20260506003500 | 60 | 126 | 10.0 | 28.0 | 0.00 | 0.00 | 0.00 | 65 | 1009.5 |
| 20260506003009 | 60 | 167 | 9.0 | 22.0 | 0.00 | 0.00 | 0.00 | 65 | 1009.7 |
| 20260506002500 | 60 | 157 | 8.0 | 27.0 | 0.00 | 0.00 | 0.00 | 65 | 1009.3 |
| 20260506002001 | 60 | 182 | 8.0 | 27.0 | 0.00 | 0.00 | 0.00 | 65 | 1009.4 |
| 20260506001506 | 60 | 238 | 8.0 | 25.0 | 0.00 | 0.00 | 0.00 | 65 | 1009.3 |
| 20260506001005 | 60 | 18 | 9.0 | 25.0 | 0.00 | 0.00 | 0.00 | 65 | 1008.9 |
| 20260506000502 | 60 | 205 | 8.0 | 23.0 | 0.00 | 0.00 | 0.00 | 66 | 1008.9 |
| 20260506000008 | 60 | 172 | 8.0 | 19.0 | 0.00 | 0.00 | 0.00 | 66 | 1008.7 |
| 20260505235459 | 60 | 178 | 8.0 | 19.0 | 0.00 | 0.00 | 0.00 | 66 | 1008.7 |
| 20260505235031 | 60 | 116 | 7.0 | 14.0 | 0.00 | 0.00 | 0.00 | 66 | 1008.6 |
| 20260505234501 | 60 | 192 | 8.0 | 23.0 | 0.00 | 0.00 | 0.00 | 66 | 1008.6 |
| 20260505234006 | 60 | 172 | 8.0 | 23.0 | 0.00 | 0.00 | 0.00 | 66 | 1008.5 |
| 20260505233508 | 60 | 220 | 7.0 | 21.0 | 0.00 | 0.00 | 0.00 | 65 | 1008.4 |
| 20260505233002 | 61 | 159 | 8.0 | 21.0 | 0.00 | 0.00 | 0.00 | 65 | 1008.1 |
| 20260505232504 | 61 | 148 | 8.0 | 22.0 | 0.00 | 0.00 | 0.00 | 65 | 1008.1 |
| 20260505232032 | 61 | 134 | 8.0 | 22.0 | 0.00 | 0.00 | 0.00 | 64 | 1008.2 |
| 20260505231512 | 61 | 207 | 7.0 | 24.0 | 0.00 | 0.00 | 0.00 | 64 | 1008.3 |
| 20260505231031 | 61 | 184 | 9.0 | 24.0 | 0.00 | 0.00 | 0.00 | 63 | 1008.2 |
| 20260505230503 | 61 | 192 | 9.0 | 27.0 | 0.00 | 0.00 | 0.00 | 63 | 1008.2 |
| 20260505225506 | 62 | 178 | 9.0 | 23.0 | 0.00 | 0.00 | 0.00 | 61 | 1008.1 |
| 20260505225000 | 62 | 201 | 10.0 | 21.0 | 0.00 | 0.00 | 0.00 | 61 | 1008.2 |
| 20260505224608 | 62 | 169 | 10.0 | 24.0 | 0.00 | 0.00 | 0.00 | 60 | 1007.9 |
| 20260505224006 | 63 | 198 | 10.0 | 26.0 | 0.00 | 0.00 | 0.00 | 59 | 1008.0 |
| 20260505223500 | 63 | 175 | 10.0 | 26.0 | 0.00 | 0.00 | 0.00 | 59 | 1007.9 |
| 20260505223027 | 63 | 99 | 10.0 | 26.0 | 0.00 | 0.00 | 0.00 | 59 | 1007.9 |
| 20260505222504 | 63 | 168 | 9.0 | 26.0 | 0.00 | 0.00 | 0.00 | 59 | 1007.8 |
| 20260505221020 | 64 | 246 | 7.0 | 19.0 | 0.00 | 0.00 | 0.00 | 61 | 1007.6 |
| 20260505220506 | 64 | 157 | 8.0 | 26.0 | 0.00 | 0.00 | 0.00 | 62 | 1007.5 |
| 20260505220007 | 63 | 142 | 9.0 | 26.0 | 0.00 | 0.00 | 0.00 | 62 | 1007.6 |
| 20260505215517 | 63 | 172 | 9.0 | 26.0 | 0.00 | 0.00 | 0.00 | 62 | 1007.6 |
| 20260505214513 | 63 | 189 | 9.0 | 19.0 | 0.00 | 0.00 | 0.00 | 63 | 1007.4 |
| 20260505214005 | 64 | 134 | 9.0 | 25.0 | 0.00 | 0.00 | 0.00 | 61 | 1007.2 |
| 20260505213507 | 64 | 161 | 8.0 | 25.0 | 0.00 | 0.00 | 0.00 | 61 | 1007.5 |
| 20260505213000 | 64 | 97 | 8.0 | 20.0 | 0.00 | 0.00 | 0.00 | 61 | 1007.3 |
| 20260505212500 | 64 | 170 | 8.0 | 19.0 | 0.00 | 0.00 | 0.00 | 60 | 1007.1 |
| 20260505212001 | 65 | 152 | 8.0 | 20.0 | 0.00 | 0.00 | 0.00 | 59 | 1007.0 |
| 20260505211502 | 66 | 178 | 8.0 | 23.0 | 0.00 | 0.00 | 0.00 | 59 | 1007.0 |
| 20260505211009 | 66 | 169 | 8.0 | 23.0 | 0.00 | 0.00 | 0.00 | 57 | 1007.1 |
| 20260505210459 | 66 | 198 | 8.0 | 22.0 | 0.00 | 0.00 | 0.00 | 57 | 1007.1 |
| 20260505210006 | 66 | 71 | 8.0 | 22.0 | 0.00 | 0.00 | 0.00 | 57 | 1007.1 |
| 20260505205503 | 67 | 151 | 7.0 | 18.0 | 0.00 | 0.00 | 0.00 | 57 | 1007.1 |
| 20260505205025 | 67 | 154 | 7.0 | 20.0 | 0.00 | 0.00 | 0.00 | 56 | 1007.1 |
| 20260505204500 | 67 | 141 | 10.0 | 25.0 | 0.00 | 0.00 | 0.00 | 57 | 1007.1 |
| 20260505203459 | 66 | 202 | 10.0 | 29.0 | 0.00 | 0.00 | 0.00 | 57 | 1007.0 |
| 20260505203000 | 66 | 225 | 10.0 | 29.0 | 0.00 | 0.00 | 0.00 | 57 | 1007.0 |
| 20260505202459 | 67 | 202 | 9.0 | 25.0 | 0.00 | 0.00 | 0.00 | 57 | 1007.0 |
| 20260505202000 | 67 | 131 | 8.0 | 25.0 | 0.00 | 0.00 | 0.00 | 57 | 1007.1 |
| 20260505201459 | 68 | 134 | 9.0 | 28.0 | 0.00 | 0.00 | 0.00 | 57 | 1007.2 |
| 20260505201000 | 67 | 154 | 9.0 | 28.0 | 0.00 | 0.00 | 0.00 | 58 | 1007.2 |
| 20260505200500 | 67 | 97 | 9.0 | 31.0 | 0.00 | 0.00 | 0.00 | 56 | 1007.2 |
| 20260505200000 | 67 | 206 | 9.0 | 31.0 | 0.00 | 0.00 | 0.00 | 59 | 1007.3 |
| 20260505195500 | 68 | 192 | 8.0 | 19.0 | 0.00 | 0.00 | 0.00 | 57 | 1007.3 |
| 20260505195005 | 68 | 209 | 8.0 | 21.0 | 0.00 | 0.00 | 0.00 | 57 | 1007.4 |
| 20260505194459 | 68 | 80 | 9.0 | 21.0 | 0.00 | 0.00 | 0.00 | 56 | 1007.4 |
| 20260505193459 | 68 | 165 | 10.0 | 28.0 | 0.00 | 0.00 | 0.00 | 56 | 1007.4 |
| 20260505193305 | 68 | 138 | 9.0 | 28.0 | 0.00 | 0.00 | 0.00 | 56 | 1007.5 |
| 20260505173000 | 70 | 148 | 8.0 | 18.0 | 0.00 | 0.00 | 0.00 | 58 | 1008.5 |
| 20260505172459 | 69 | 146 | 9.0 | 21.0 | 0.00 | 0.00 | 0.00 | 57 | 1008.7 |
| 20260505171959 | 69 | 126 | 10.0 | 21.0 | 0.00 | 0.00 | 0.00 | 58 | 1008.7 |
| 20260505171459 | 69 | 186 | 9.0 | 18.0 | 0.00 | 0.00 | 0.00 | 56 | 1008.6 |
| 20260505170959 | 70 | 130 | 9.0 | 18.0 | 0.00 | 0.00 | 0.00 | 57 | 1008.8 |
| 20260505170459 | 70 | 205 | 9.0 | 19.0 | 0.00 | 0.00 | 0.00 | 55 | 1008.9 |
| 20260505165458 | 69 | 133 | 9.0 | 21.0 | 0.00 | 0.00 | 0.00 | 58 | 1009.1 |
| 20260505164959 | 68 | 171 | 9.0 | 20.0 | 0.00 | 0.00 | 0.00 | 59 | 1009.1 |
| 20260505164459 | 68 | 116 | 9.0 | 18.0 | 0.00 | 0.00 | 0.00 | 58 | 1009.0 |
| 20260505164001 | 68 | 262 | 9.0 | 18.0 | 0.00 | 0.00 | 0.00 | 57 | 1009.0 |
| 20260505163459 | 68 | 133 | 10.0 | 23.0 | 0.00 | 0.00 | 0.00 | 59 | 1009.0 |
| 20260505163000 | 68 | 130 | 10.0 | 23.0 | 0.00 | 0.00 | 0.00 | 59 | 1009.0 |
| 20260505162000 | 67 | 156 | 10.0 | 19.0 | 0.00 | 0.00 | 0.00 | 59 | 1009.0 |
| 20260505161459 | 68 | 143 | 9.0 | 19.0 | 0.00 | 0.00 | 0.00 | 58 | 1009.1 |
| 20260505161000 | 68 | 106 | 9.0 | 20.0 | 0.00 | 0.00 | 0.00 | 58 | 1009.1 |
| 20260505160458 | 68 | 140 | 10.0 | 20.0 | 0.00 | 0.00 | 0.00 | 59 | 1009.2 |
| 20260505152959 | 68 | 161 | 8.0 | 19.0 | 0.00 | 0.00 | 0.00 | 59 | 1009.2 |
| 20260505152459 | 69 | 167 | 8.0 | 16.0 | 0.00 | 0.00 | 0.00 | 58 | 1009.3 |
| 20260505152000 | 69 | 146 | 8.0 | 18.0 | 0.00 | 0.00 | 0.00 | 58 | 1009.3 |
| 20260505151500 | 68 | 130 | 9.0 | 18.0 | 0.00 | 0.00 | 0.00 | 60 | 1009.3 |
| 20260505140459 | 68 | 143 | 6.0 | 15.0 | 0.00 | 0.00 | 0.00 | 59 | 1009.2 |
| 20260505124524 | 62 | 216 | 6.0 | 18.0 | 0.00 | 0.00 | 0.00 | 66 | 1009.5 |
| 20260505123459 | 61 | 180 | 7.0 | 16.0 | 0.00 | 0.00 | 0.00 | 70 | 1009.3 |
| 20260505123009 | 60 | 150 | 6.0 | 15.0 | 0.00 | 0.00 | 0.00 | 71 | 1009.2 |
| 20260505122502 | 60 | 173 | 7.0 | 16.0 | 0.00 | 0.00 | 0.00 | 71 | 1009.3 |
| 20260505122005 | 60 | 136 | 7.0 | 16.0 | 0.00 | 0.00 | 0.00 | 72 | 1009.4 |
| 20260505121505 | 60 | 188 | 7.0 | 21.0 | 0.00 | 0.00 | 0.00 | 71 | 1009.4 |
| 20260505121000 | 59 | 196 | 7.0 | 21.0 | 0.00 | 0.00 | 0.00 | 72 | 1009.4 |
| 20260505120006 | 59 | 136 | 6.0 | 19.0 | 0.00 | 0.00 | 0.00 | 73 | 1009.3 |
| 20260505115503 | 59 | 163 | 5.0 | 13.0 | 0.00 | 0.00 | 0.00 | 74 | 1009.4 |
| 20260505115032 | 58 | 178 | 5.0 | 12.0 | 0.00 | 0.00 | 0.00 | 75 | 1009.4 |
| 20260505114002 | 57 | 143 | 6.0 | 15.0 | 0.00 | 0.00 | 0.00 | 77 | 1009.4 |
| 20260505113534 | 57 | 120 | 6.0 | 15.0 | 0.00 | 0.00 | 0.00 | 78 | 1009.4 |
| 20260505113008 | 56 | 109 | 6.0 | 22.0 | 0.00 | 0.00 | 0.00 | 78 | 1009.4 |
| 20260505112515 | 56 | 124 | 6.0 | 22.0 | 0.00 | 0.00 | 0.00 | 79 | 1009.5 |
| 20260505112033 | 55 | 173 | 6.0 | 16.0 | 0.00 | 0.00 | 0.00 | 79 | 1009.6 |
| 20260505111002 | 54 | 132 | 5.0 | 11.0 | 0.00 | 0.00 | 0.00 | 81 | 1009.4 |
| 20260505110510 | 54 | 139 | 5.0 | 12.0 | 0.00 | 0.00 | 0.00 | 82 | 1009.5 |
| 20260505102013 | 52 | 132 | 5.0 | 15.0 | 0.00 | 0.00 | 0.00 | 84 | 1009.4 |
| 20260505101501 | 52 | 259 | 6.0 | 15.0 | 0.00 | 0.00 | 0.00 | 84 | 1009.4 |
| 20260505100959 | 51 | 155 | 5.0 | 12.0 | 0.00 | 0.00 | 0.00 | 84 | 1009.4 |
| 20260505095534 | 51 | 175 | 5.0 | 12.0 | 0.00 | 0.00 | 0.00 | 84 | 1009.4 |
| 20260505095021 | 51 | 127 | 5.0 | 12.0 | 0.00 | 0.00 | 0.00 | 85 | 1009.4 |
| 20260505094505 | 51 | 157 | 4.0 | 11.0 | 0.00 | 0.00 | 0.00 | 85 | 1009.4 |
| 20260505094038 | 51 | 155 | 4.0 | 13.0 | 0.00 | 0.00 | 0.00 | 85 | 1009.4 |
| 20260505093516 | 51 | 144 | 5.0 | 13.0 | 0.00 | 0.00 | 0.00 | 85 | 1009.4 |
| 20260505093011 | 51 | 191 | 5.0 | 11.0 | 0.00 | 0.00 | 0.00 | 85 | 1009.5 |
| 20260505092008 | 51 | 167 | 4.0 | 11.0 | 0.00 | 0.00 | 0.00 | 85 | 1009.5 |
| 20260505091506 | 51 | 191 | 4.0 | 9.0 | 0.00 | 0.00 | 0.00 | 85 | 1009.5 |
| 20260505091003 | 51 | 161 | 4.0 | 10.0 | 0.00 | 0.00 | 0.00 | 86 | 1009.5 |
| 20260505090501 | 51 | 138 | 5.0 | 15.0 | 0.00 | 0.00 | 0.00 | 85 | 1009.4 |
| 20260505090032 | 51 | 165 | 6.0 | 15.0 | 0.00 | 0.00 | 0.00 | 86 | 1009.4 |
| 20260505085502 | 51 | 181 | 5.0 | 10.0 | 0.00 | 0.00 | 0.00 | 86 | 1009.4 |
| 20260505085003 | 51 | 146 | 4.0 | 11.0 | 0.00 | 0.00 | 0.00 | 86 | 1009.4 |
| 20260505084005 | 51 | 179 | 4.0 | 11.0 | 0.00 | 0.00 | 0.00 | 85 | 1009.5 |
| 20260505083509 | 51 | 165 | 5.0 | 16.0 | 0.00 | 0.00 | 0.00 | 85 | 1009.5 |
| 20260505082959 | 51 | 175 | 5.0 | 16.0 | 0.00 | 0.00 | 0.00 | 85 | 1009.4 |
| 20260505082457 | 51 | 154 | 5.0 | 12.0 | 0.00 | 0.00 | 0.00 | 85 | 1009.4 |